Location: Catia de la Mar
(10.6038°N, 67.0303°W)
Time: 12:57:37
(UTC+00:00)

Daily predictions for brighter satellites

Satellite Brightness Start Highest point End
(mag) Time Altitude Azimuth Time Altitude Azimuth Time Altitude Azimuth
IRIDIUM 114 4.4 22:52:30 10° S 22:57:43 90° WNW 23:02:55 10° N
CZ-4 R/B 2.5 22:55:53 10° SE 22:59:21 26° ENE 23:02:46 10° NNE
NOSS 3-3 (A) 4.3 22:56:46 10° S 23:01:33 33° ESE 23:06:27 10° NE
NOSS 3-3 (C) 4.3 22:56:51 10° S 23:01:39 32° ESE 23:06:34 10° NE
Cosmos 1655 Rocket 4.1 23:01:36 10° N 23:07:42 60° E 23:13:51 10° SSE
Cosmos 2084 3.9 23:04:20 10° S 23:08:04 36° ESE 23:11:48 10° NE
Cosmos 1486 Rocket 4.3 23:03:07 10° S 23:08:11 47° ESE 23:13:16 10° NNE
ARGOS 3.9 23:04:25 10° SE 23:09:07 32° ENE 23:13:48 10° NNE
Cosmos 1689 Rocket 1.8 23:19:50 10° NNE 23:22:36 85° ESE 23:25:23 10° S
Cosmos 1606 3.4 23:21:01 10° SSE 23:24:19 30° E 23:27:38 10° NNE
IRS-1C Rocket 4.2 23:20:19 10° SSE 23:25:29 59° ENE 23:30:38 10° N
Cosmos 1842 Rocket 3.5 23:21:03 10° S 23:25:31 85° E 23:30:00 10° N
Cosmos 921 Rocket 4.4 23:22:39 10° NNE 23:25:37 19° ENE 23:27:08 16° ESE
Ariane H10 3.7 23:00:54 10° W 23:26:38 77° S 23:30:33 15° E
Meteor 2-15 Rocket 4.4 23:21:13 10° S 23:27:13 66° E 23:33:12 10° NNE
Cosmos 1603 4.4 23:23:29 10° N 23:28:27 33° ENE 23:32:18 15° SE
Centaur AC-64 3.6 23:18:33 10° WNW 23:31:20 60° SSW 23:33:53 18° SE
Cosmos 1763 Rocket 3.6 23:27:57 10° NNW 23:33:04 76° WSW 23:38:15 10° S
NOSS 3-1 (C) 4.4 23:25:18 10° NNW 23:34:01 86° ENE 23:43:08 10° SSE
Spelda 4.0 23:31:52 10° SW 23:35:05 31° SSE 23:39:59 18° ESE
Delta 202 4.4 23:29:36 10° W 23:35:38 52° NNW 23:40:46 10° ENE
CZ-2C R/B 2.8 23:33:50 10° S 23:36:29 17° SE 23:36:29 17° SE
Cosmos 1408 Rocket 4.3 23:33:17 10° NNE 23:37:14 31° E 23:39:28 20° SE
HJ-1C 3.3 23:38:05 16° SSE 23:40:30 59° E 23:43:46 10° N
Cosmos 1844 Rocket 3.8 23:35:15 10° SW 23:40:32 46° WNW 23:45:50 10° N
DMSP B5D2-2 4.3 23:36:27 10° N 23:41:43 73° WNW 23:46:58 10° SSW
CZ-2C R/B 4.4 23:37:29 10° N 23:42:29 36° WNW 23:47:33 10° SW
ERS-2 2.0 23:39:28 10° NNE 23:43:05 89° W 23:46:42 10° SSW
Cosmos 841 Rocket 3.6 23:38:40 10° N 23:43:38 51° ENE 23:47:04 19° SE
Tianhe-1 1.4 23:42:36 10° SW 23:45:38 64° NW 23:48:33 11° NE
CSL-04 Debris 4.5 23:41:46 16° SE 23:45:56 46° ENE 23:51:05 10° N
Lacrosse 5 rocket 1.8 23:42:26 10° NW 23:46:52 67° WSW 23:50:14 18° SSE
H-2A R/B 2.9 23:44:55 10° S 23:49:37 46° W 23:54:17 10° NNW
Cosmos 2221 4.1 23:48:05 10° SSW 23:52:01 37° W 23:55:59 10° NNW
GEOS 3 Rocket 4.4 23:50:43 26° ESE 23:52:53 36° ENE 23:57:45 10° N
Cosmos 1174 3.6 23:50:20 10° N 23:52:58 40° NE 23:52:58 40° NE
OAO 3 Rocket 4.5 23:50:03 10° WSW 23:54:21 38° NNW 23:58:41 10° NE
